Date String (YYYY-MM-DD hh:mm:ss) UTC,Instrument flags,Ambient pressure (hPa),Sample flow (lpm),Bypass flow (lpm),Sample temperature (°C),Ambient temperature (°C),ASC tube jacket temperature (°C),LED temperature (°C),Box temperature (°C),Sample RH (%),Span deviation,Mass concentration (μg/m³),Mass concentration (μg/m³),Mass concentration (μg/m³)
DateTimeUTC,F1_M11,P_M11,Q1_M11,Q2_M11,T1_M11,T2_M11,T3_M11,T4_M11,T5_M11,U1_M11,ZSPAN_M11,X0_M11,X2_M11,X1_M11
2022-10-29 07:00:00,,0829.5,5.00,0.00,25.5,23.8,00.0,34.5,27.2,09.2,0000.0,0002.91,0002.24,0001.96
2022-10-29 07:01:00,,0829.5,5.00,0.00,25.5,23.7,00.0,34.5,27.2,09.3,0000.0,0002.98,0002.27,0001.98
2022-10-29 07:02:00,,0829.5,5.01,0.00,25.5,23.7,00.0,34.5,27.2,09.1,0000.0,0003.12,0002.32,0002.01
2022-10-29 07:03:00,,0829.5,4.98,0.00,25.5,23.7,00.0,34.5,27.2,09.0,0000.0,0003.25,0002.38,0002.02
2022-10-29 07:04:00,,0829.5,5.02,0.00,25.5,23.7,00.0,34.5,27.2,09.2,0000.0,0003.27,0002.40,0002.03
2022-10-29 07:05:00,,0829.6,4.98,0.00,25.5,23.7,00.0,34.5,27.3,09.5,0000.0,0003.33,0002.44,0002.07
2022-10-29 07:06:00,,0829.5,5.00,0.00,25.5,23.7,00.0,34.5,27.2,09.8,0000.0,0003.40,0002.50,0002.12
2022-10-29 07:07:00,,0829.4,5.00,0.00,25.5,23.7,00.0,34.4,27.1,10.0,0000.0,0003.37,0002.51,0002.17
2022-10-29 07:08:00,,0829.4,5.00,0.00,25.5,23.7,00.0,34.4,27.2,10.0,0000.0,0003.48,0002.52,0002.21
2022-10-29 07:09:00,,0829.3,5.00,0.00,25.4,23.6,00.0,34.4,27.1,09.9,0000.0,0003.57,0002.58,0002.24
2022-10-29 07:10:00,,0829.3,4.99,0.00,25.4,23.6,00.0,34.4,27.2,09.8,0000.0,0003.67,0002.62,0002.27
2022-10-29 07:11:00,,0829.4,4.99,0.00,25.4,23.6,00.0,34.4,27.2,09.6,0000.0,0003.69,0002.63,0002.30
2022-10-29 07:12:00,,0829.3,5.01,0.00,25.4,23.6,00.0,34.4,27.2,09.6,0000.0,0003.80,0002.67,0002.31
2022-10-29 07:13:00,,0829.4,5.00,0.00,25.4,23.6,00.0,34.4,27.2,09.8,0000.0,0003.87,0002.72,0002.34
2022-10-29 07:14:00,,0829.4,4.98,0.00,25.4,23.6,00.0,34.4,27.2,10.0,0000.0,0004.19,0002.76,0002.37
2022-10-29 07:15:00,,0829.4,5.00,0.00,25.4,23.6,00.0,34.4,27.1,09.7,0000.0,0004.78,0002.79,0002.39
2022-10-29 07:16:00,,0829.3,5.00,0.00,25.4,23.6,00.0,34.4,27.1,09.5,0000.0,0004.83,0002.79,0002.38
2022-10-29 07:17:00,,0829.3,5.00,0.00,25.4,23.6,00.0,34.3,27.1,09.7,0000.0,0004.81,0002.78,0002.37
2022-10-29 07:18:00,,0829.3,5.00,0.00,25.3,23.6,00.0,34.3,27.1,09.8,0000.0,0004.77,0002.76,0002.36
2022-10-29 07:19:00,,0829.4,5.01,0.00,25.3,23.6,00.0,34.3,27.1,09.9,0000.0,0004.63,0002.74,0002.36
2022-10-29 07:20:00,,0829.3,4.98,0.00,25.3,23.6,00.0,34.3,27.1,09.9,0000.0,0004.61,0002.75,0002.37
2022-10-29 07:21:00,,0829.3,5.00,0.00,25.3,23.6,00.0,34.3,27.0,10.0,0000.0,0004.53,0002.74,0002.39
2022-10-29 07:22:00,,0829.3,5.01,0.00,25.3,23.5,00.0,34.3,27.0,10.1,0000.0,0004.54,0002.76,0002.40
2022-10-29 07:23:00,,0829.3,5.00,0.00,25.3,23.5,00.0,34.3,27.0,10.0,0000.0,0004.48,0002.76,0002.42
2022-10-29 07:24:00,,0829.4,4.97,0.00,25.3,23.5,00.0,34.3,27.0,10.0,0000.0,0004.62,0002.75,0002.42
2022-10-29 07:25:00,,0829.3,5.00,0.00,25.3,23.5,00.0,34.3,27.0,10.0,0000.0,0004.36,0002.71,0002.43
2022-10-29 07:26:00,,0829.3,5.01,0.00,25.3,23.5,00.0,34.2,27.0,09.9,0000.0,0003.64,0002.70,0002.44
2022-10-29 07:27:00,,0829.3,5.01,0.00,25.3,23.5,00.0,34.2,27.0,09.9,0000.0,0003.69,0002.74,0002.47
2022-10-29 07:28:00,,0829.3,4.98,0.00,25.2,23.5,00.0,34.2,27.0,10.1,0000.0,0003.70,0002.75,0002.49
2022-10-29 07:29:00,,0829.3,5.01,0.00,25.2,23.5,00.0,34.2,26.9,10.2,0000.0,0003.72,0002.74,0002.48
2022-10-29 07:30:00,,0829.4,5.01,0.00,25.2,23.4,00.0,34.2,27.0,10.3,0000.0,0003.83,0002.75,0002.48
2022-10-29 07:31:00,,0829.4,5.01,0.00,25.2,23.4,00.0,34.2,27.0,10.2,0000.0,0003.91,0002.76,0002.46
2022-10-29 07:32:00,,0829.4,4.98,0.00,25.2,23.4,00.0,34.2,26.8,10.2,0000.0,0003.96,0002.76,0002.45
2022-10-29 07:33:00,,0829.4,5.00,0.00,25.2,23.4,00.0,34.2,26.8,10.1,0000.0,0004.02,0002.79,0002.47
2022-10-29 07:34:00,,0829.4,5.01,0.00,25.2,23.4,00.0,34.1,26.9,10.1,0000.0,0004.12,0002.85,0002.50
2022-10-29 07:35:00,,0829.4,5.01,0.00,25.2,23.4,00.0,34.1,26.9,10.1,0000.0,0003.95,0002.88,0002.54
2022-10-29 07:36:00,,0829.5,4.99,0.00,25.2,23.4,00.0,34.1,26.9,10.2,0000.0,0003.99,0002.93,0002.57
2022-10-29 07:37:00,,0829.5,5.01,0.00,25.2,23.4,00.0,34.1,26.9,10.1,0000.0,0004.11,0002.99,0002.60
2022-10-29 07:38:00,,0829.5,4.99,0.00,25.1,23.4,00.0,34.1,26.9,10.2,0000.0,0004.13,0003.01,0002.64
2022-10-29 07:39:00,,0829.5,5.00,0.00,25.1,23.4,00.0,34.1,26.8,10.5,0000.0,0004.11,0003.03,0002.65
2022-10-29 07:40:00,,0829.4,5.00,0.00,25.1,23.3,00.0,34.1,26.8,10.4,0000.0,0004.28,0003.10,0002.69
2022-10-29 07:41:00,,0829.4,5.00,0.00,25.1,23.3,00.0,34.1,26.9,10.4,0000.0,0004.50,0003.15,0002.75
2022-10-29 07:42:00,,0829.4,5.00,0.00,25.1,23.3,00.0,34.1,26.9,10.4,0000.0,0004.53,0003.17,0002.81
2022-10-29 07:43:00,,0829.4,5.00,0.00,25.1,23.3,00.0,34.1,26.8,10.4,0000.0,0004.56,0003.20,0002.85
2022-10-29 07:44:00,,0829.4,5.01,0.00,25.1,23.3,00.0,34.1,26.8,10.4,0000.0,0004.58,0003.21,0002.87
2022-10-29 07:45:00,,0829.4,4.98,0.00,25.1,23.3,00.0,34.0,26.7,10.5,0000.0,0004.62,0003.22,0002.89
2022-10-29 07:46:00,,0829.3,5.01,0.00,25.1,23.3,00.0,34.0,26.8,10.5,0000.0,0004.77,0003.24,0002.90
2022-10-29 07:47:00,,0829.3,5.00,0.00,25.1,23.3,00.0,34.0,26.8,10.5,0000.0,0004.87,0003.24,0002.92
2022-10-29 07:48:00,,0829.3,5.01,0.00,25.0,23.3,00.0,34.0,26.7,10.5,0000.0,0004.94,0003.26,0002.95
2022-10-29 07:49:00,,0829.3,4.99,0.00,25.0,23.3,00.0,34.0,26.8,10.6,0000.0,0005.15,0003.31,0002.99
2022-10-29 07:50:00,,0829.4,5.00,0.00,25.0,23.3,00.0,34.0,26.7,10.5,0000.0,0005.31,0003.35,0003.03
2022-10-29 07:51:00,,0829.4,5.00,0.00,25.0,23.3,00.0,34.0,26.7,10.5,0000.0,0005.31,0003.36,0003.05
2022-10-29 07:52:00,,0829.4,5.01,0.00,25.0,23.3,00.0,34.0,26.8,10.5,0000.0,0005.44,0003.35,0003.04
2022-10-29 07:53:00,,0829.4,5.00,0.00,25.0,23.3,00.0,34.0,26.8,10.5,0000.0,0005.43,0003.34,0003.03
2022-10-29 07:54:00,,0829.3,5.00,0.00,25.0,23.3,00.0,34.0,26.7,10.5,0000.0,0005.42,0003.32,0003.01
2022-10-29 07:55:00,,0829.3,5.00,0.00,25.0,23.2,00.0,33.9,26.6,10.5,0000.0,0005.45,0003.30,0002.99
2022-10-29 07:56:00,,0829.4,5.01,0.00,25.0,23.2,00.0,33.9,26.7,10.3,0000.0,0005.28,0003.26,0002.95
2022-10-29 07:57:00,,0829.3,5.00,0.00,25.0,23.2,00.0,33.9,26.7,10.1,0000.0,0005.16,0003.23,0002.91
2022-10-29 07:58:00,,0829.4,4.99,0.00,24.9,23.2,00.0,33.9,26.7,10.0,0000.0,0005.03,0003.20,0002.86
2022-10-29 07:59:00,,0829.3,5.00,0.00,24.9,23.2,00.0,33.9,26.7,09.9,0000.0,0004.86,0003.16,0002.79
